GW7587 Weather Reports


time (UTC)temp
F
wind
direction
speed
knots
gust
knots
rain 1hr
in
rain 24hr
in
rain mn
in
humidity
%
barometer
mb
20260906234601 69 234 5.2 10.4 0.00 0.00 0.00 37 1028.8
20260906233101 70 250 5.2 12.2 0.00 0.00 0.00 37 1028.9
20260906224603 69 281 2.6 7.8 0.00 0.00 0.00 40 1029.0
20260906223100 69 292 2.6 10.4 0.00 0.00 0.00 40 1029.0
20260906221601 69 239 4.3 11.3 0.00 0.00 0.00 40 1029.2
20260906214602 69 293 4.3 8.7 0.00 0.00 0.00 37 1029.3
20260906213102 69 241 4.3 9.6 0.00 0.00 0.00 38 1029.4
20260906211605 70 243 4.3 11.3 0.00 0.00 0.00 37 1029.6
20260906204600 71 229 5.2 9.6 0.00 0.00 0.00 36 1029.7
20260906203100 74 184 3.5 13.9 0.00 0.00 0.00 31 1029.8
20260906201601 70 295 3.5 14.8 0.00 0.00 0.00 36 1030.0
20260906193102 71 202 5.2 12.2 0.00 0.00 0.00 36 1030.4
20260906191601 69 225 4.3 10.4 0.00 0.00 0.00 37 1030.6
20260906190100 70 177 2.6 10.4 0.00 0.00 0.00 35 1030.8
20260906184601 73 228 6.1 11.3 0.00 0.00 0.00 33 1030.9
20260906183100 71 260 4.3 15.6 0.00 0.00 0.00 32 1031.0
20260906181604 73 169 4.3 11.3 0.00 0.00 0.00 31 1031.3
20260906174601 70 110 4.3 9.6 0.00 0.00 0.00 31 1031.4
20260906173102 70 317 3.5 10.4 0.00 0.00 0.00 31 1031.7
20260906171600 70 177 5.2 11.3 0.00 0.00 0.00 32 1032.0
20260906170058 70 229 2.6 8.7 0.00 0.00 0.00 32 1031.8
20260906164558 67 240 3.5 7.8 0.00 0.00 0.00 35 1031.8
20260906161548 68 306 3.5 7.0 0.00 0.00 0.00 34 1031.8
20260906160049 66 235 3.5 9.6 0.00 0.00 0.00 34 1031.7
20260906154547 64 181 3.5 6.1 0.00 0.00 0.00 39 1031.7
20260906153046 64 157 3.5 8.7 0.00 0.00 0.00 37 1031.6
20260906151542 65 168 3.5 7.8 0.00 0.00 0.00 36 1031.7
20260906150042 64 207 3.5 7.8 0.00 0.00 0.00 38 1031.8
20260906144540 63 197 3.5 8.7 0.00 0.00 0.00 39 1031.8
20260906143040 62 196 1.7 7.8 0.00 0.00 0.00 39 1031.8
20260906141541 61 204 0.9 3.5 0.00 0.00 0.00 40 1032.0
20260906140039 60 248 0.9 1.7 0.00 0.00 0.00 40 1032.0
20260906134536 58 271 0.0 1.7 0.00 0.00 0.00 41 1031.8
20260906133037 54 299 0.9 3.5 0.00 0.00 0.00 47 1031.8
20260906132530 53 322 1.7 3.5 0.00 0.00 0.00 48 1031.7
20260906131028 49 317 2.6 3.5 0.00 0.00 0.00 53 1031.6
20260906125529 47 321 2.6 3.5 0.00 0.00 0.00 54 1031.4
20260906124026 47 355 2.6 3.5 0.00 0.00 0.00 50 1031.3
20260906122527 49 318 2.6 3.5 0.00 0.00 0.00 47 1031.2
20260906115523 50 316 2.6 4.3 0.00 0.00 0.00 45 1031.2
20260906114025 50 310 2.6 3.5 0.00 0.00 0.00 44 1030.9
20260906112524 51 317 1.7 4.3 0.00 0.00 0.00 43 1030.9
20260906111024 50 318 2.6 3.5 0.00 0.00 0.00 44 1030.9
20260906105523 50 323 2.6 3.5 0.00 0.00 0.00 44 1030.8
20260906102524 49 318 2.6 4.3 0.00 0.00 0.00 47 1031.0
20260906101023 50 327 1.7 3.5 0.00 0.00 0.00 46 1030.9
20260906095522 50 317 2.6 3.5 0.00 0.00 0.00 46 1030.9
20260906094023 50 313 2.6 3.5 0.00 0.00 0.00 46 1030.9
20260906092521 51 305 2.6 3.5 0.00 0.00 0.00 45 1030.9
20260906082519 52 323 1.7 3.5 0.00 0.00 0.00 46 1031.2
20260906081017 52 281 1.7 3.5 0.00 0.00 0.00 48 1031.2
20260906075518 52 299 1.7 2.6 0.00 0.00 0.00 50 1031.3
20260906074019 52 326 1.7 4.3 0.00 0.00 0.00 51 1031.4
20260906072515 53 335 1.7 3.5 0.00 0.00 0.00 48 1031.4
20260906071010 54 355 1.7 3.5 0.00 0.00 0.00 44 1031.6
20260906065509 55 315 1.7 3.5 0.00 0.00 0.00 43 1031.6
20260906062509 54 315 1.7 3.5 0.00 0.00 0.00 44 1031.6
20260906055510 54 333 1.7 2.6 0.00 0.00 0.00 44 1031.4
20260906054010 54 319 1.7 3.5 0.00 0.00 0.00 43 1031.6
20260906052509 54 319 1.7 3.5 0.00 0.00 0.00 43 1031.7
20260906051008 55 324 1.7 3.5 0.00 0.00 0.00 42 1031.6
20260906045506 55 297 1.7 3.5 0.00 0.00 0.00 41 1031.6
20260906042505 55 320 1.7 2.6 0.00 0.00 0.00 40 1031.8
20260906041006 55 328 1.7 3.5 0.00 0.00 0.00 42 1031.7
20260906035504 55 329 1.7 3.5 0.00 0.00 0.00 41 1031.6
20260906034004 56 331 1.7 4.3 0.00 0.00 0.00 39 1031.6
20260906032504 57 324 2.6 4.3 0.00 0.00 0.00 39 1031.4
20260906031004 57 309 3.5 5.2 0.00 0.00 0.00 40 1031.3
20260906025504 58 339 2.6 7.0 0.00 0.00 0.00 39 1031.0
20260906024005 58 340 2.6 3.5 0.00 0.00 0.00 40 1030.9
20260906022504 58 342 1.7 4.3 0.00 0.00 0.00 39 1030.6
20260906015501 61 304 2.6 5.2 0.00 0.00 0.00 38 1030.4
20260906014001 62 315 2.6 7.0 0.00 0.00 0.00 36 1030.4
20260906012501 64 325 1.7 7.0 0.00 0.00 0.00 35 1030.4
20260906011001 64 273 1.7 7.0 0.00 0.00 0.00 35 1030.4
20260906005501 65 40 1.7 7.8 0.00 0.00 0.00 34 1030.4
20260906004001 68 308 3.5 7.8 0.00 0.00 0.00 32 1030.2
20260906002501 69 260 2.6 9.6 0.00 0.00 0.00 32 1030.2
20260906001000 70 248 3.5 9.6 0.00 0.00 0.00 32 1030.1
20260905235501 69 16 2.6 8.7 0.00 0.00 0.00 34 1030.1